Regional Weather Roundup
Issued by NWS Jackson, KY

Home | Current Version | Previous Version | Text Only | Print | Product List | Glossary Off
Versions: 1 2 3 4 5 6 7 8 9 10 11 12 13 14 15 16 17 18 19 20 21 22 23 24 25 26 27 28 29 30 31 32 33 34 35 36 37 38 39 40 41 42 43 44 45 46 47 48 49 50

000
ASUS43 KJKL 281105
RWRJKL

EAST KENTUCKY HOURLY WEATHER ROUNDUP
NATIONAL WEATHER SERVICE JACKSON KY
700 AM EDT MON JUL 28 2014

NOTE: "FAIR" INDICATES FEW OR NO CLOUDS BELOW 12,000 FEET WITH
NO SIGNIFICANT WEATHER AND/OR OBSTRUCTIONS TO VISIBILITY.

* THESE REPORTS ARE NOT UNDER NWS QUALITY CONTROL AND MAY NOT
  REPORT WEATHER SUCH AS PRECIPITATION AND FOG.

KYZ079-080-083-085-087-088-110-112-115-119-120-281200
...EASTERN KENTUCKY...

CITY           SKY/WX    TMP DP  RH WIND       PRES   REMARKS
JACKSON        CLEAR     63  60  90 VRB6      29.90S
LONDON         MOCLDY    66  60  81 W5        29.93R
SOMERSET*      CLEAR     63  61  94 W3        29.95R
MONTICELLO*    CLEAR     62  61  97 CALM      29.96R
WILLIAMSBURG*    N/A     64  64 100 CALM      29.94R
MIDDLESBORO*   FOG       65  65 100 CALM      29.93R VSB<1/4
HARLAN APT*    CLOUDY    64  63  94 MISG      29.93R VSB 1
BLACK MTN*       N/A     57  57 100 CALM        N/A
MOREHEAD APT*  PTSUNNY   64  59  82 CALM      29.91R
$$

KYZ035-036-041-042-044-050-067-078-099-281200
...CENTRAL KENTUCKY...

CITY           SKY/WX    TMP DP  RH WIND       PRES   REMARKS
MT STERLING*   CLEAR     63  59  88 W8        29.91R
FLEMING/MASON* CLOUDY    62  59  91 W7        29.89R
DANVILLE*      CLEAR     64  57  77 W7        29.94R
RICHMOND*      CLEAR     63  57  82 W5        29.92R
LEXINGTON      CLEAR     64  58  80 W8        29.91R
FRANKFORT      CLEAR     62  59  90 W5        29.90R
$$

KYZ091>093-OHZ055-061-077-WVZ005-015-034-035-042-281200
...SOUTHERN OHIO/WEST VIRGINIA...

CITY           SKY/WX    TMP DP  RH WIND       PRES   REMARKS
COVINGTON      PTCLDY    63  57  81 W8        29.88R
COLUMBUS       CLOUDY    65  58  78 NW13      29.81R
DAYTON         CLOUDY    64  58  80 NW12      29.87R
WILMINGTON     CLOUDY    63  57  81 W8        29.86R
HUNTINGTON     CLEAR     64  61  90 W7        29.84R
CHARLESTON     MOCLDY    66  65  96 W7        29.82R
PINEVILLE*     MOCLDY    68  66  95 MISG      29.92R
BECKLEY        CLOUDY    63  59  87 W12       29.87R
BLUEFIELD      CLOUDY    65  60  84 W13G21    29.91R
$$

VAZ002-007-008-TNZ017-027-036-066-071-281200
...SOUTHWEST VIRGINIA/EAST TENNESSEE...

CITY           SKY/WX    TMP DP  RH WIND       PRES   REMARKS
WISE*          MOCLDY    61  61 100 CALM      29.95S
JONESVILLE*    FOG       64  64 100 CALM      29.94R VSB<1/4
ABINGDON*      PTCLDY    66  65  97 W8        29.92S
BRISTOL        CLOUDY    67  64  90 SW5       29.91S
KNOXVILLE      PTCLDY    68  67  96 SW6       29.92R
OAK RIDGE      PTCLDY    69  67  93 CALM      29.93S
CROSSVILLE     LGT RAIN  67  64  90 W7        29.99S VSB 1
NASHVILLE      CLEAR     68  61  78 W3        29.99R
$$

...KEY TO REMARKS...
VSB - VISIBILITY IN MILES
WCI - WIND CHILL INDEX
HX  - HEAT INDEX

$$


USA.gov is the U.S. government's official web portal to all federal, state and local government web resources and services.